FJL679 OPIS-OPKC

Flight info

Callsign FJL679
Flight time 1h 27m
Altitude 36000
Route BELKO Z301 NH
Aircraft A320/M-VGDW/C

Departure

Time 2026-05-05 18:52
Airport Islamabad International Airport (OPIS)

Arrival

Time 2026-05-05 20:20
Airport Jinnah International Airport (OPKC)
Time Latitude Longitude Altitude Speed Heading
2026-05-05 18:40 33.55600 72.83155 1797 ft 0 kts 120°
2026-05-05 18:43 33.55608 72.83138 1770 ft 2 kts 120°
2026-05-05 18:43 33.55617 72.83120 1771 ft 2 kts 120°
2026-05-05 18:43 33.55625 72.83102 1770 ft 2 kts 120°
2026-05-05 18:44 33.55634 72.83084 1771 ft 3 kts 120°
2026-05-05 18:44 33.55643 72.83066 1772 ft 3 kts 139°
2026-05-05 18:44 33.55659 72.83055 1774 ft 3 kts 176°
2026-05-05 18:44 33.55677 72.83058 1771 ft 3 kts 213°
2026-05-05 18:45 33.55691 72.83071 1772 ft 3 kts 201°
2026-05-05 18:45 33.55695 72.83072 1771 ft 0 kts 199°
2026-05-05 18:46 33.55657 72.83055 1774 ft 12 kts 206°
2026-05-05 18:46 33.55604 72.82985 1772 ft 12 kts 235°
2026-05-05 18:47 33.55558 72.82904 1770 ft 12 kts 236°
2026-05-05 18:47 33.55508 72.82817 1772 ft 13 kts 235°
2026-05-05 18:47 33.55454 72.82723 1773 ft 14 kts 235°
2026-05-05 18:47 33.55391 72.82633 1772 ft 14 kts 210°
2026-05-05 18:48 33.55292 72.82607 1772 ft 15 kts 190°
2026-05-05 18:48 33.55193 72.82619 1770 ft 15 kts 125°
2026-05-05 18:48 33.55173 72.82733 1768 ft 13 kts 98°
2026-05-05 18:48 33.55161 72.82828 1770 ft 10 kts 99°
2026-05-05 18:49 33.55147 72.82923 1770 ft 12 kts 101°
2026-05-05 18:49 33.55131 72.83029 1768 ft 12 kts 100°
2026-05-05 18:49 33.55117 72.83117 1768 ft 10 kts 101°
2026-05-05 18:49 33.55100 72.83213 1768 ft 13 kts 102°
2026-05-05 18:50 33.55086 72.83307 1769 ft 10 kts 100°
2026-05-05 18:50 33.55076 72.83383 1769 ft 8 kts 98°
2026-05-05 18:50 33.55063 72.83455 1770 ft 8 kts 112°
2026-05-05 18:50 33.55001 72.83481 1769 ft 14 kts 191°
2026-05-05 18:51 33.54883 72.83456 1768 ft 19 kts 189°
2026-05-05 18:51 33.54755 72.83429 1766 ft 19 kts 191°
2026-05-05 18:51 33.54683 72.83371 1766 ft 7 kts 270°
2026-05-05 18:51 33.54686 72.83342 1764 ft 16 kts 278°
2026-05-05 18:52 33.54757 72.82876 1760 ft 95 kts 282°
2026-05-05 18:52 33.54924 72.81831 1763 ft 157 kts 281°
2026-05-05 18:52 33.55155 72.80366 1874 ft 198 kts 280°
2026-05-05 18:52 33.55427 72.78651 2463 ft 212 kts 280°
2026-05-05 18:53 33.55518 72.76907 3359 ft 216 kts 260°
2026-05-05 18:53 33.54871 72.75244 4084 ft 230 kts 227°
2026-05-05 18:53 33.53490 72.74219 4864 ft 244 kts 195°
2026-05-05 18:53 33.51783 72.73787 5382 ft 258 kts 192°
2026-05-05 18:54 33.49965 72.73366 5768 ft 275 kts 191°
2026-05-05 18:54 33.48056 72.72930 6353 ft 282 kts 191°
2026-05-05 18:54 33.46118 72.72486 7009 ft 285 kts 192°
2026-05-05 18:54 33.44156 72.72031 7685 ft 289 kts 192°
2026-05-05 18:55 33.42217 72.71575 8305 ft 293 kts 193°
2026-05-05 18:55 33.40233 72.71104 8969 ft 297 kts 193°
2026-05-05 18:55 33.38268 72.70637 9611 ft 300 kts 193°
2026-05-05 18:55 33.36249 72.70157 10190 ft 306 kts 193°
2026-05-05 18:56 33.34088 72.69641 10487 ft 322 kts 193°
2026-05-05 18:56 33.31835 72.69104 10763 ft 339 kts 193°
2026-05-05 18:56 33.29465 72.68540 11008 ft 355 kts 193°
2026-05-05 18:56 33.26986 72.67955 11270 ft 370 kts 193°
2026-05-05 18:57 33.24432 72.67355 11773 ft 376 kts 193°
2026-05-05 18:57 33.21853 72.66749 12341 ft 380 kts 193°
2026-05-05 18:57 33.19251 72.66136 12895 ft 384 kts 194°
2026-05-05 18:57 33.16612 72.65511 13437 ft 388 kts 194°
2026-05-05 18:58 33.13955 72.64880 13952 ft 392 kts 194°
2026-05-05 18:58 33.11262 72.64243 14436 ft 395 kts 194°
2026-05-05 18:58 33.08554 72.63606 14949 ft 398 kts 194°
2026-05-05 18:58 33.05877 72.62760 15445 ft 398 kts 204°
2026-05-05 18:59 33.03381 72.61360 15955 ft 396 kts 214°
2026-05-05 18:59 33.01124 72.59476 16455 ft 397 kts 221°
2026-05-05 18:59 32.98906 72.57491 16952 ft 400 kts 220°
2026-05-05 18:59 32.96665 72.55504 17452 ft 403 kts 220°
2026-05-05 19:00 32.94431 72.53532 17948 ft 406 kts 220°
2026-05-05 19:00 32.92150 72.51527 18416 ft 409 kts 220°
2026-05-05 19:00 32.89849 72.49506 18853 ft 412 kts 220°
2026-05-05 19:00 32.87538 72.47474 19283 ft 415 kts 220°
2026-05-05 19:01 32.85208 72.45420 19722 ft 418 kts 220°
2026-05-05 19:01 32.82865 72.43356 20154 ft 421 kts 220°
2026-05-05 19:01 32.80508 72.41283 20565 ft 423 kts 220°
2026-05-05 19:01 32.78103 72.39168 20983 ft 426 kts 220°
2026-05-05 19:02 32.75741 72.37093 21374 ft 429 kts 220°
2026-05-05 19:02 32.73333 72.34981 21767 ft 432 kts 220°
2026-05-05 19:02 32.70901 72.32850 22147 ft 434 kts 220°
2026-05-05 19:02 32.68466 72.30719 22516 ft 437 kts 220°
2026-05-05 19:03 32.66008 72.28569 22870 ft 440 kts 220°
2026-05-05 19:03 32.63539 72.26408 23220 ft 443 kts 220°
2026-05-05 19:03 32.61050 72.24227 23542 ft 446 kts 220°
2026-05-05 19:03 32.58550 72.22033 23823 ft 448 kts 220°
2026-05-05 19:04 32.56035 72.19831 24100 ft 450 kts 220°
2026-05-05 19:04 32.53504 72.17620 24381 ft 453 kts 220°
2026-05-05 19:04 32.50967 72.15411 24652 ft 455 kts 220°
2026-05-05 19:04 32.48405 72.13187 24912 ft 456 kts 220°
2026-05-05 19:05 32.45726 72.11121 25182 ft 462 kts 212°
2026-05-05 19:05 32.42852 72.09395 25452 ft 466 kts 211°
2026-05-05 19:05 32.39942 72.07675 25706 ft 468 kts 211°
2026-05-05 19:05 32.37028 72.05955 25948 ft 470 kts 211°
2026-05-05 19:06 32.34100 72.04226 26202 ft 471 kts 211°
2026-05-05 19:06 32.31161 72.02487 26447 ft 473 kts 211°
2026-05-05 19:06 32.28215 72.00744 26682 ft 474 kts 211°
2026-05-05 19:06 32.25261 71.99000 26922 ft 476 kts 211°
2026-05-05 19:07 32.22297 71.97250 27159 ft 477 kts 211°
2026-05-05 19:07 32.19316 71.95489 27378 ft 479 kts 211°
2026-05-05 19:07 32.16333 71.93725 27598 ft 480 kts 211°
2026-05-05 19:07 32.13341 71.91959 27821 ft 481 kts 211°
2026-05-05 19:08 32.10341 71.90191 28035 ft 483 kts 211°
2026-05-05 19:08 32.07331 71.88422 28249 ft 484 kts 211°
2026-05-05 19:08 32.04317 71.86652 28440 ft 485 kts 211°
2026-05-05 19:08 32.01296 71.84876 28641 ft 486 kts 211°
2026-05-05 19:09 31.98284 71.83110 28831 ft 487 kts 211°
2026-05-05 19:09 31.95263 71.81346 29019 ft 488 kts 211°
2026-05-05 19:09 31.92177 71.79546 29196 ft 488 kts 211°
2026-05-05 19:09 31.89131 71.77766 29422 ft 487 kts 211°
2026-05-05 19:10 31.86094 71.75987 29690 ft 486 kts 211°
2026-05-05 19:10 31.83069 71.74216 29954 ft 484 kts 212°
2026-05-05 19:10 31.80092 71.72475 30173 ft 483 kts 212°
2026-05-05 19:10 31.77085 71.70717 30377 ft 482 kts 212°
2026-05-05 19:11 31.74085 71.68963 30578 ft 482 kts 212°
2026-05-05 19:11 31.71079 71.67210 30774 ft 481 kts 212°
2026-05-05 19:11 31.68086 71.65466 30964 ft 480 kts 212°
2026-05-05 19:11 31.65092 71.63723 31163 ft 480 kts 212°
2026-05-05 19:12 31.62112 71.61987 31356 ft 479 kts 212°
2026-05-05 19:12 31.59125 71.60251 31549 ft 478 kts 212°
2026-05-05 19:12 31.56144 71.58525 31750 ft 478 kts 212°
2026-05-05 19:12 31.53168 71.56801 31937 ft 477 kts 213°
2026-05-05 19:13 31.50197 71.55078 32132 ft 476 kts 213°
2026-05-05 19:13 31.47223 71.53352 32332 ft 475 kts 213°
2026-05-05 19:13 31.44266 71.51637 32522 ft 474 kts 213°
2026-05-05 19:13 31.41310 71.49924 32719 ft 473 kts 213°
2026-05-05 19:14 31.38374 71.48226 32907 ft 472 kts 213°
2026-05-05 19:14 31.35421 71.46519 33106 ft 471 kts 213°
2026-05-05 19:14 31.32482 71.44822 33294 ft 471 kts 213°
2026-05-05 19:14 31.29545 71.43127 33488 ft 470 kts 213°
2026-05-05 19:15 31.26657 71.41466 33672 ft 469 kts 213°
2026-05-05 19:15 31.23724 71.39781 33851 ft 468 kts 213°
2026-05-05 19:15 31.20801 71.38099 34010 ft 467 kts 213°
2026-05-05 19:15 31.17889 71.36422 34155 ft 467 kts 214°
2026-05-05 19:16 31.14973 71.34745 34297 ft 466 kts 214°
2026-05-05 19:16 31.12060 71.33072 34442 ft 466 kts 214°
2026-05-05 19:16 31.09157 71.31403 34578 ft 465 kts 214°
2026-05-05 19:16 31.06250 71.29732 34707 ft 465 kts 214°
2026-05-05 19:17 31.03338 71.28060 34835 ft 465 kts 214°
2026-05-05 19:17 31.00473 71.26417 34952 ft 465 kts 214°
2026-05-05 19:17 30.97533 71.24736 35068 ft 464 kts 214°
2026-05-05 19:17 30.95619 71.23642 35144 ft 464 kts 214°
2026-05-05 19:18 30.92720 71.21987 35261 ft 464 kts 214°
2026-05-05 19:18 30.88881 71.19797 35409 ft 463 kts 214°
2026-05-05 19:18 30.85989 71.18150 35523 ft 462 kts 214°
2026-05-05 19:18 30.83094 71.16497 35641 ft 462 kts 214°
2026-05-05 19:19 30.80226 71.14857 35788 ft 460 kts 214°
2026-05-05 19:19 30.78279 71.13744 35842 ft 460 kts 214°
2026-05-05 19:19 30.72550 71.10481 35864 ft 462 kts 214°
2026-05-05 19:20 30.66764 71.07186 35868 ft 462 kts 214°
2026-05-05 19:20 30.60989 71.03898 35868 ft 463 kts 214°
2026-05-05 19:21 30.55207 71.00614 35867 ft 463 kts 214°
2026-05-05 19:21 30.49473 70.97372 35864 ft 463 kts 214°
2026-05-05 19:22 30.43683 70.94101 35866 ft 463 kts 214°
2026-05-05 19:22 30.37889 70.90822 35868 ft 463 kts 214°
2026-05-05 19:23 30.32090 70.87549 35870 ft 463 kts 214°
2026-05-05 19:23 30.26295 70.84286 35870 ft 463 kts 214°
2026-05-05 19:24 30.20545 70.81032 35870 ft 462 kts 216°
2026-05-05 19:24 30.14882 70.77547 35869 ft 460 kts 217°
2026-05-05 19:25 30.09293 70.73965 35870 ft 460 kts 217°
2026-05-05 19:25 30.03660 70.70408 35868 ft 461 kts 217°
2026-05-05 19:26 29.98015 70.66920 35872 ft 461 kts 217°
2026-05-05 19:26 29.92363 70.63432 35871 ft 461 kts 217°
2026-05-05 19:27 29.86709 70.59928 35867 ft 460 kts 217°
2026-05-05 19:27 29.81098 70.56451 35866 ft 461 kts 217°
2026-05-05 19:28 29.75457 70.52970 35870 ft 460 kts 217°
2026-05-05 19:28 29.69804 70.49488 35873 ft 460 kts 217°
2026-05-05 19:29 29.64153 70.46008 35874 ft 460 kts 217°
2026-05-05 19:29 29.58515 70.42538 35879 ft 460 kts 217°
2026-05-05 19:30 29.52870 70.39074 35874 ft 459 kts 217°
2026-05-05 19:30 29.47254 70.35630 35874 ft 459 kts 217°
2026-05-05 19:31 29.41615 70.32168 35871 ft 459 kts 217°
2026-05-05 19:31 29.36008 70.28735 35872 ft 459 kts 217°
2026-05-05 19:32 29.30376 70.25299 35870 ft 459 kts 217°
2026-05-05 19:32 29.24734 70.21856 35871 ft 459 kts 217°
2026-05-05 19:33 29.19118 70.18429 35872 ft 459 kts 217°
2026-05-05 19:33 29.13483 70.14996 35871 ft 459 kts 217°
2026-05-05 19:34 29.07846 70.11573 35870 ft 459 kts 217°
2026-05-05 19:35 28.99402 70.06442 35873 ft 458 kts 217°
2026-05-05 19:35 28.93773 70.03018 35868 ft 458 kts 217°
2026-05-05 19:36 28.88133 69.99606 35866 ft 458 kts 217°
2026-05-05 19:36 28.82531 69.96226 35867 ft 458 kts 217°
2026-05-05 19:37 28.76903 69.92819 35863 ft 458 kts 217°
2026-05-05 19:37 28.71276 69.89418 35862 ft 457 kts 217°
2026-05-05 19:38 28.65638 69.86026 35862 ft 457 kts 217°
2026-05-05 19:38 28.60013 69.82644 35861 ft 457 kts 217°
2026-05-05 19:39 28.54397 69.79265 35851 ft 456 kts 217°
2026-05-05 19:39 28.48816 69.75868 35852 ft 455 kts 217°
2026-05-05 19:40 28.43290 69.72441 35851 ft 454 kts 218°
2026-05-05 19:40 28.37787 69.69011 35850 ft 454 kts 218°
2026-05-05 19:41 28.32230 69.65584 35848 ft 454 kts 217°
2026-05-05 19:41 28.26671 69.62181 35859 ft 453 kts 217°
2026-05-05 19:42 28.21157 69.58793 35846 ft 453 kts 217°
2026-05-05 19:42 28.15644 69.55395 35840 ft 452 kts 217°
2026-05-05 19:43 28.10103 69.52007 35842 ft 452 kts 217°
2026-05-05 19:43 28.04561 69.48622 35836 ft 452 kts 217°
2026-05-05 19:44 27.99039 69.45248 35830 ft 451 kts 217°
2026-05-05 19:44 27.93507 69.41871 35832 ft 451 kts 217°
2026-05-05 19:45 27.88016 69.38517 35830 ft 451 kts 217°
2026-05-05 19:45 27.82491 69.35143 35832 ft 451 kts 217°
2026-05-05 19:46 27.76964 69.31786 35830 ft 451 kts 217°
2026-05-05 19:46 27.71433 69.28434 35829 ft 451 kts 217°
2026-05-05 19:47 27.65905 69.25079 35831 ft 451 kts 217°
2026-05-05 19:47 27.60412 69.21740 35831 ft 451 kts 217°
2026-05-05 19:48 27.54882 69.18389 35827 ft 451 kts 217°
2026-05-05 19:48 27.49348 69.15042 35823 ft 451 kts 217°
2026-05-05 19:49 27.43811 69.11692 35820 ft 451 kts 217°
2026-05-05 19:49 27.38280 69.08346 35822 ft 451 kts 217°
2026-05-05 19:50 27.32754 69.05007 35820 ft 451 kts 217°
2026-05-05 19:50 27.27355 69.01748 35818 ft 451 kts 217°
2026-05-05 19:51 27.21869 68.98436 35816 ft 451 kts 217°
2026-05-05 19:51 27.16349 68.95105 35807 ft 451 kts 217°
2026-05-05 19:52 27.10817 68.91775 35804 ft 451 kts 217°
2026-05-05 19:52 27.05282 68.88449 35811 ft 451 kts 217°
2026-05-05 19:53 26.99751 68.85128 35811 ft 451 kts 217°
2026-05-05 19:53 26.94223 68.81812 35809 ft 451 kts 217°
2026-05-05 19:54 26.88680 68.78487 35810 ft 451 kts 217°
2026-05-05 19:54 26.83147 68.75170 35812 ft 451 kts 217°
2026-05-05 19:55 26.77605 68.71855 35804 ft 451 kts 217°
2026-05-05 19:55 26.72057 68.68543 35803 ft 452 kts 217°
2026-05-05 19:56 26.66513 68.65236 35805 ft 451 kts 217°
2026-05-05 19:56 26.60971 68.61942 35806 ft 452 kts 217°
2026-05-05 19:57 26.55430 68.58633 35806 ft 451 kts 217°
2026-05-05 19:57 26.49886 68.55321 35803 ft 451 kts 217°
2026-05-05 19:58 26.44377 68.52033 35807 ft 451 kts 217°
2026-05-05 19:58 26.38843 68.48737 35805 ft 451 kts 217°
2026-05-05 19:58 26.36069 68.47089 35646 ft 451 kts 216°
2026-05-05 19:59 26.33287 68.45438 35409 ft 452 kts 217°
2026-05-05 19:59 26.30514 68.43791 35171 ft 453 kts 217°
2026-05-05 19:59 26.27725 68.42132 34940 ft 454 kts 217°
2026-05-05 19:59 26.24931 68.40474 34703 ft 456 kts 217°
2026-05-05 20:00 26.22134 68.38802 33896 ft 459 kts 219°
2026-05-05 20:00 26.19464 68.36847 32875 ft 458 kts 223°
2026-05-05 20:00 26.16841 68.34826 31954 ft 460 kts 223°
2026-05-05 20:00 26.14197 68.32796 30965 ft 464 kts 223°
2026-05-05 20:01 26.11529 68.30757 30081 ft 461 kts 222°
2026-05-05 20:01 26.08930 68.28791 29435 ft 444 kts 222°
2026-05-05 20:01 26.06450 68.26923 28829 ft 429 kts 222°
2026-05-05 20:01 26.03985 68.25057 28212 ft 420 kts 222°
2026-05-05 20:02 26.01615 68.23244 27639 ft 417 kts 221°
2026-05-05 20:02 25.99206 68.21390 27046 ft 414 kts 221°
2026-05-05 20:02 25.96879 68.19600 26483 ft 411 kts 220°
2026-05-05 20:02 25.94531 68.17799 25908 ft 408 kts 220°
2026-05-05 20:03 25.92205 68.16020 25355 ft 405 kts 219°
2026-05-05 20:03 25.89881 68.14250 24794 ft 403 kts 219°
2026-05-05 20:03 25.87574 68.12497 24236 ft 400 kts 218°
2026-05-05 20:03 25.85281 68.10757 23708 ft 397 kts 218°
2026-05-05 20:04 25.83006 68.09032 23136 ft 395 kts 218°
2026-05-05 20:04 25.80750 68.07315 22614 ft 393 kts 217°
2026-05-05 20:04 25.78506 68.05605 22130 ft 390 kts 217°
2026-05-05 20:04 25.76273 68.03904 21672 ft 388 kts 217°
2026-05-05 20:05 25.74050 68.02212 21210 ft 385 kts 217°
2026-05-05 20:05 25.72588 68.01099 20915 ft 384 kts 217°
2026-05-05 20:05 25.70390 67.99428 20466 ft 382 kts 217°
2026-05-05 20:05 25.68202 67.97767 20020 ft 380 kts 217°
2026-05-05 20:06 25.66029 67.96117 19566 ft 378 kts 217°
2026-05-05 20:06 25.63867 67.94480 19115 ft 375 kts 216°
2026-05-05 20:06 25.61713 67.92853 18653 ft 373 kts 216°
2026-05-05 20:06 25.59573 67.91241 18189 ft 371 kts 216°
2026-05-05 20:07 25.57445 67.89636 17679 ft 369 kts 216°
2026-05-05 20:07 25.55326 67.88034 17210 ft 367 kts 216°
2026-05-05 20:07 25.53256 67.86465 16747 ft 365 kts 216°
2026-05-05 20:07 25.51136 67.84858 16266 ft 363 kts 216°
2026-05-05 20:08 25.49086 67.83304 15800 ft 361 kts 216°
2026-05-05 20:08 25.47014 67.81735 15331 ft 359 kts 216°
2026-05-05 20:08 25.44955 67.80179 14853 ft 357 kts 215°
2026-05-05 20:08 25.42914 67.78641 14402 ft 355 kts 215°
2026-05-05 20:09 25.40874 67.77108 13926 ft 353 kts 215°
2026-05-05 20:09 25.38849 67.75586 13436 ft 350 kts 215°
2026-05-05 20:09 25.36841 67.74076 12948 ft 348 kts 215°
2026-05-05 20:09 25.34846 67.72577 12471 ft 346 kts 215°
2026-05-05 20:10 25.32875 67.71094 12099 ft 335 kts 215°
2026-05-05 20:10 25.30997 67.69681 11765 ft 320 kts 215°
2026-05-05 20:10 25.29174 67.68306 11229 ft 314 kts 215°
2026-05-05 20:10 25.27399 67.66966 10675 ft 312 kts 216°
2026-05-05 20:11 25.25613 67.65615 10305 ft 310 kts 216°
2026-05-05 20:11 25.23819 67.64261 10213 ft 312 kts 215°
2026-05-05 20:11 25.22023 67.62911 10086 ft 312 kts 215°
2026-05-05 20:11 25.20232 67.61566 9946 ft 311 kts 215°
2026-05-05 20:12 25.18442 67.60225 9794 ft 311 kts 215°
2026-05-05 20:12 25.16634 67.58870 9209 ft 316 kts 215°
2026-05-05 20:12 25.14837 67.57523 8995 ft 307 kts 215°
2026-05-05 20:12 25.13060 67.56190 8491 ft 309 kts 214°
2026-05-05 20:13 25.11305 67.54873 8259 ft 301 kts 214°
2026-05-05 20:13 25.09583 67.53583 7824 ft 300 kts 214°
2026-05-05 20:13 25.07814 67.52259 6887 ft 310 kts 213°
2026-05-05 20:13 25.06030 67.50922 6103 ft 310 kts 213°
2026-05-05 20:14 25.04251 67.49592 5357 ft 307 kts 213°
2026-05-05 20:14 25.02504 67.48285 4786 ft 298 kts 213°
2026-05-05 20:14 25.00831 67.47032 4662 ft 284 kts 213°
2026-05-05 20:14 24.99238 67.45832 4513 ft 272 kts 216°
2026-05-05 20:15 24.97936 67.44365 4284 ft 266 kts 236°
2026-05-05 20:15 24.97208 67.42549 4146 ft 257 kts 254°
2026-05-05 20:15 24.96738 67.40671 4010 ft 252 kts 253°
2026-05-05 20:15 24.96273 67.38820 3800 ft 244 kts 253°
2026-05-05 20:16 24.95831 67.37064 3530 ft 239 kts 254°
2026-05-05 20:16 24.95386 67.35304 3246 ft 235 kts 253°
2026-05-05 20:16 24.94961 67.33620 2952 ft 220 kts 253°
2026-05-05 20:16 24.94561 67.32034 2706 ft 210 kts 253°
2026-05-05 20:17 24.94181 67.30532 2414 ft 198 kts 253°
2026-05-05 20:17 24.93823 67.29116 2170 ft 186 kts 253°
2026-05-05 20:17 24.93485 67.27778 1941 ft 175 kts 253°
2026-05-05 20:17 24.93177 67.26561 1742 ft 156 kts 254°
2026-05-05 20:18 24.92894 67.25444 1547 ft 150 kts 255°
2026-05-05 20:18 24.92615 67.24342 1351 ft 148 kts 255°
2026-05-05 20:18 24.92336 67.23243 1163 ft 148 kts 255°
2026-05-05 20:18 24.92061 67.22154 971 ft 147 kts 255°
2026-05-05 20:19 24.91786 67.21071 790 ft 145 kts 255°
2026-05-05 20:19 24.91514 67.19999 609 ft 147 kts 255°
2026-05-05 20:19 24.91236 67.18922 405 ft 148 kts 253°
2026-05-05 20:19 24.90964 67.17848 202 ft 144 kts 255°
2026-05-05 20:20 24.90706 67.16803 106 ft 133 kts 252°
2026-05-05 20:20 24.90523 67.16096 104 ft 63 kts 256°
2026-05-05 20:20 24.90453 67.15815 104 ft 13 kts 254°
2026-05-05 20:20 24.90430 67.15760 105 ft 13 kts 230°
2026-05-05 20:21 24.90384 67.15758 104 ft 5 kts 157°
2026-05-05 20:21 24.90347 67.15770 103 ft 6 kts 164°
2026-05-05 20:21 24.90302 67.15784 103 ft 7 kts 164°
2026-05-05 20:21 24.90263 67.15806 102 ft 6 kts 129°
2026-05-05 20:22 24.90267 67.15859 102 ft 9 kts 77°
2026-05-05 20:22 24.90293 67.15972 102 ft 16 kts 75°
2026-05-05 20:22 24.90322 67.16083 102 ft 14 kts 74°
2026-05-05 20:22 24.90347 67.16183 102 ft 13 kts 75°
2026-05-05 20:23 24.90370 67.16274 101 ft 11 kts 74°
2026-05-05 20:23 24.90366 67.16348 101 ft 9 kts 136°
2026-05-05 20:23 24.90312 67.16368 102 ft 8 kts 165°
2026-05-05 20:23 24.90259 67.16384 101 ft 10 kts 165°
2026-05-05 20:24 24.90196 67.16403 101 ft 9 kts 163°
2026-05-05 20:24 24.90144 67.16423 101 ft 7 kts 147°
2026-05-05 20:24 24.90143 67.16461 101 ft 5 kts 68°
2026-05-05 20:24 24.90148 67.16492 101 ft 4 kts 86°
2026-05-05 20:25 24.90150 67.16516 101 ft 3 kts 86°
2026-05-05 20:25 24.90151 67.16529 101 ft 0 kts 85°